Location: Peach Mountain Observatory
(42.3967°N, 83.9367°W)
Time: 11:18:35
(UTC-05:00)

Vanguard 1 Rocket - All Passes

Search period start: 28 January 2020 00:00
Search period end: 07 February 2020 00:00
Orbit: 650 x 4226 km, 34.3° (Epoch: 27 January)

Date Brightness Start Highest point End Pass type
(mag) Time Alt. Az. Time Alt. Az. Time Alt. Az.
28 Jan - 08:18:16 10° SSW 08:23:01 23° SE 08:30:07 10° E daylight
28 Jan - 10:39:57 10° WSW 10:47:31 54° SSE 11:02:13 10° E daylight
28 Jan - 13:03:52 10° W 13:14:40 56° S 13:34:59 10° ESE daylight
28 Jan - 15:29:52 10° W 15:43:38 36° SSW 16:04:25 10° SSE daylight
28 Jan - 18:04:14 10° WSW 18:12:47 13° SW 18:22:18 10° SSW visible
29 Jan - 07:12:01 10° SE 07:12:49 10° SE 07:13:39 10° SE visible
29 Jan - 09:30:03 10° SW 09:36:14 42° SSE 09:47:23 10° E daylight
29 Jan - 11:53:15 10° WSW 12:02:10 58° S 12:19:44 10° ESE daylight
29 Jan - 14:18:05 10° W 14:30:18 44° SSW 14:51:03 10° SE daylight
29 Jan - 16:47:00 10° W 16:59:27 22° SW 17:15:27 10° S daylight
30 Jan - 08:20:40 10° SSW 08:25:32 28° SSE 08:33:05 10° E daylight
30 Jan - 10:42:56 10° WSW 10:50:17 55° S 11:04:35 10° ESE daylight
30 Jan - 13:06:59 10° W 13:17:22 50° SSW 13:36:40 10° SE daylight
30 Jan - 15:33:27 10° W 15:46:05 30° SSW 16:04:39 10° SSE daylight
31 Jan - 07:12:26 10° S 07:15:14 14° SE 07:18:38 10° ESE visible
31 Jan - 09:32:56 10° SW 09:38:58 46° SSE 09:49:57 10° E daylight
31 Jan - 11:56:20 10° W 12:04:58 54° S 12:21:46 10° ESE daylight
31 Jan - 14:21:23 10° W 14:32:54 37° SSW 14:51:58 10° SSE daylight
31 Jan - 16:52:23 10° WSW 17:01:50 16° SW 17:13:18 10° SSW daylight
01 Feb - 08:23:17 10° SW 08:28:10 32° SSE 08:35:56 10° E daylight
01 Feb - 10:45:59 10° WSW 10:53:07 54° S 11:06:53 10° ESE daylight
01 Feb - 13:10:09 10° W 13:20:06 44° SSW 13:38:07 10° SE daylight
01 Feb - 15:37:28 10° WSW 15:48:36 23° SSW 16:04:14 10° S daylight
02 Feb - 07:14:19 10° S 07:17:45 18° SE 07:22:13 10° ESE visible
02 Feb - 09:35:53 10° WSW 09:41:47 48° SSE 09:52:29 10° E daylight
02 Feb - 11:59:27 10° W 12:07:47 49° S 12:23:40 10° ESE daylight
02 Feb - 14:24:55 10° W 14:35:34 30° SSW 14:52:27 10° SSE daylight
03 Feb - 08:26:03 10° SW 08:30:55 36° SSE 08:38:42 10° E daylight
03 Feb - 10:49:04 10° WSW 10:55:59 51° S 11:09:08 10° ESE daylight
03 Feb - 13:13:29 10° W 13:22:52 37° SSW 13:39:16 10° SE daylight
03 Feb - 15:42:22 10° WSW 15:51:13 17° SW 16:02:44 10° S daylight
04 Feb - 07:16:38 10° SSW 07:20:24 23° SSE 07:25:27 10° ESE visible
04 Feb - 09:38:55 10° WSW 09:44:39 48° S 09:54:59 10° ESE daylight
04 Feb - 12:02:39 10° W 12:10:38 42° SSW 12:25:22 10° SE daylight
04 Feb - 14:28:50 10° WSW 14:38:17 24° SSW 14:52:23 10° SSE daylight
05 Feb - 06:08:34 10° SSE 06:10:03 11° SE 06:11:38 10° SE visible
05 Feb - 08:28:57 10° SW 08:33:44 39° SSE 08:41:26 10° E daylight
05 Feb - 10:52:12 10° WSW 10:58:53 46° S 11:11:16 10° ESE daylight
05 Feb - 13:16:59 10° WSW 13:25:41 30° SSW 13:40:05 10° SSE daylight
05 Feb - 15:50:04 10° SW 15:53:55 11° SW 15:58:12 10° SSW daylight
06 Feb - 07:19:13 10° SW 07:23:09 27° SSE 07:28:29 10° ESE daylight
06 Feb - 09:42:00 10° WSW 09:47:34 46° S 09:57:25 10° ESE daylight
06 Feb - 12:05:58 10° W 12:13:31 35° SSW 12:26:51 10° SE daylight
06 Feb - 14:33:28 10° WSW 14:41:04 17° SSW 14:51:25 10° S daylight
